Tracking 19854 objects as of 23-Sep-2019
HD Live streaming from Space Station
objects crossing your sky now

COSMOS 841

Track COSMOS 841 now!
10-day predictions
COSMOS 841 is classified as:


NORAD ID: 9022
Int'l Code: 1976-069A
Perigee: 771.1 km
Apogee: 788.2 km
Inclination: 74.0 °
Period: 100.3 minutes
Semi major axis: 7150 km
RCS: 2.1872 m2 (large)
Launch date: July 15, 1976
Source: Commonwealth of Independent States (former USSR) (CIS)
Launch site: PLESETSK MISSILE AND SPACE COMPLEX (PKMTR)
aabbcc
Your satellite tracking list
Your tracking list is empty




NASA's NSSDC Master Catalog

Two Line Element Set (TLE):
1  9022U 76069A   19266.11514857  .00000007  00000-0  11316-4 0  9990
2  9022  74.0429 134.2071 0011938 102.3419 257.9071 14.35768438259670
Source of the keplerian elements: AFSPC